This demonstration page uses our WeatherBlox Daily Observations layout. Learn more.

41.55636, -103.73856

Hourly Observations for September 30, 2017

Temp ( °F °C ) Dew Point ( °F °C ) Humidity (%) Winds ( mph kmh ) Pressure ( in mb ) Visibility ( mi km ) Precip ( " mm )
12:13 am 00:13 Cloudy 52 11.1 49 9.4 89 89 ENE 7 11 30.06 1018 10 16.0934 0 0
12:53 am 00:53 Cloudy 53 11.7 49 9.4 86 86 ESE 10 17 30.05 1018 10 16.0934 0 0
1:53 am 01:53 Cloudy 54 12.2 49 9.4 83 83 SE 3 6 30.04 1017 10 16.0934 0 0
2:25 am 02:25 Cloudy 54 12.2 49 9.4 83 83 SE 10 17 30.03 1017 10 16.0934 0 0
2:49 am 02:49 Cloudy 54 12 48 9 82 82 ESE 9 15 30.03 1017 10 16.0934 0 0
2:53 am 02:53 Cloudy 54 12.2 49 9.4 83 83 ESE 10 17 30.02 1017 10 16.0934 0 0
3:53 am 03:53 Cloudy 55 12.8 49 9.4 80 80 SSE 12 19 30 1016 10 16.0934 0 0
4:53 am 04:53 Cloudy 54 12.2 49 9.4 83 83 SSE 13 20 29.99 1016 10 16.0934 0 0
5:53 am 05:53 Cloudy 54 12.2 49 9.4 83 83 SSE 12 19 29.99 1016 10 16.0934 0 0
6:53 am 06:53 Cloudy 54 12.2 49 9.4 83 83 S 10 17 30 1016 10 16.0934 0 0
7:51 am 07:51 Partly Cloudy 55 13 48 9 77 77 SSE 10 17 29.97 1015 10 16.0934 0 0
7:53 am 07:53 Mostly Sunny 55 12.8 50 10 83 83 SSE 12 19 29.99 1016 10 16.0934 0 0
8:53 am 08:53 Mostly Sunny 57 13.9 50 10 78 78 SSE 15 24 29.99 1016 10 16.0934 0 0
9:53 am 09:53 Sunny 60 15.6 50 10 70 70 SE 13 20 29.97 1015 10 16.0934 0 0
10:53 am 10:53 Sunny 65 18.3 49 9.4 56 56 SSE 9 15 29.94 1014 10 16.0934 0 0
11:53 am 11:53 Sunny 69 20.6 50 10 51 51 SSE 14 22 29.89 1012 10 16.0934 0 0
12:53 pm 12:53 Sunny 74 23.3 48 8.9 40 40 SE 12 19 29.84 1011 10 16.0934 0 0
1:53 pm 13:53 Sunny 76 24.4 42 5.6 30 30 ENE 9 15 29.8 1009 10 16.0934 0 0
2:53 pm 14:53 Sunny 76 24.4 38 3.3 25 25 WNW 3 6 29.77 1008 10 16.0934 0 0
3:53 pm 15:53 Sunny 75 23.9 39 3.9 27 27 S 7 11 29.75 1008 10 16.0934 0 0
4:53 pm 16:53 Sunny 72 22.2 40 4.4 31 31 S 5 7 29.75 1008 10 16.0934 0 0
5:53 pm 17:53 Sunny 67 19.4 48 8.9 51 51 ENE 5 7 29.75 1007 10 16.0934 0 0
6:53 pm 18:53 Clear 62 16.7 47 8.3 58 58 ESE 7 11 29.76 1008 10 16.0934 0 0
7:53 pm 19:53 Clear 60 15.6 50 10 70 70 ESE 6 9 29.76 1008 10 16.0934 0 0
8:53 pm 20:53 Mostly Cloudy 60 15.6 50 10 70 70 W 6 9 29.78 1009 10 16.0934 0 0
9:53 pm 21:53 Cloudy with Light Rain 59 15 48 8.9 67 67 WSW 3 6 29.78 1008 10 16.0934 0.02 0.508
10:53 pm 22:53 Cloudy 57 13.9 49 9.4 74 74 Calm 29.76 1008 10 16.0934 0 0.0254
11:53 pm 23:53 Mostly Clear 53 11.7 48 8.9 83 83 Calm 29.73 1007 10 16.0934 0 0.0254

Powered by AerisWeather